Flag for New Zealand Weather past 2 weeks in Auckland, New Zealand

Now
57 °F

Passing clouds.


Feels Like: 57 °F
Forecast: 61 / 69 °F
Wind: 3 mph from East

Location: Auckland Airport

Current Time: Apr 26, 2015 at 12:18:01 AM

Latest Report: Apr 26, 2015 at 12:00 AM


Visibility: N/A

Pressure: 30.21 "Hg

Humidity: 88%

Dew point: 54 °F

Location of AucklandLocation

Historic Weather in Auckland — Graph

°F

Auckland temperature yesterday

Maximum temperature yesterday: 68 °F (at 1:00 PM)
Minimum temperature yesterday: 52 °F (at 7:00 AM)
Average temperature yesterday: 60 °F

Past Weeks' High & Low Weather Summary

 TemperatureHumidityPressure
High72 °F (Apr 19, 2:00 PM)100% (Apr 12, 4:00 AM)30.42 "Hg (Apr 12, 4:00 AM)
Low46 °F (Apr 15, 12:00 AM)49% (Apr 12, 2:00 PM)29.30 "Hg (Apr 13, 2:30 PM)
Average60 °F82%30.08 "Hg
* Reported Apr 10 11:00 PM — Apr 25 11:00 PM, Auckland, Weather by CustomWeather, © 2015

Note: Actual official high and low records may vary slightly from our data, if they occured in-between our weather recording intervals... More about our weather records

Advertising

Auckland weather history for previous 24 hours

 ConditionsComfort  
Time TempWeatherWind HumidityBarometerVisibility
11:00 PM
Sat, Apr 25
59 °FPassing clouds.5 mph82%30.21 "HgN/A
10:30 PM59 °FPassing clouds.3 mph77%30.21 "HgN/A
10:00 PM59 °FPassing clouds.6 mph77%30.21 "HgN/A
9:30 PM59 °FPassing clouds.5 mph77%30.21 "HgN/A
9:00 PM59 °FPassing clouds.8 mph72%30.21 "HgN/A
8:30 PM59 °FPassing clouds.7 mph77%30.21 "HgN/A
8:00 PM59 °FPassing clouds.6 mph77%30.21 "HgN/A
7:30 PM61 °FPassing clouds.7 mph77%30.21 "HgN/A
7:00 PM61 °FPassing clouds.9 mph77%30.21 "HgN/A
6:30 PM63 °FPassing clouds.10 mph73%30.21 "HgN/A
6:00 PM63 °FPartly cloudy.12 mph77%30.21 "HgN/A
5:30 PM63 °FPartly cloudy.10 mph73%30.21 "HgN/A
5:00 PM64 °FPassing clouds.15 mph64%30.21 "HgN/A
4:30 PM64 °FPassing clouds.14 mph73%30.21 "HgN/A
4:00 PM66 °FPassing clouds.14 mph68%30.21 "HgN/A
3:30 PM66 °FBroken clouds.14 mph68%30.21 "HgN/A
3:00 PM68 °FPassing clouds.16 mph60%30.21 "HgN/A
2:30 PM66 °FPassing clouds.16 mph64%30.21 "HgN/A
2:00 PM66 °FPassing clouds.15 mph60%30.24 "HgN/A
1:30 PM68 °FPartly sunny.15 mph64%30.24 "HgN/A
1:00 PM68 °FBroken clouds.14 mph64%30.24 "HgN/A
12:30 PM66 °FPartly sunny.12 mph68%30.27 "HgN/A
12:00 PM66 °FPartly sunny.12 mph73%30.27 "HgN/A
11:30 AM64 °FPartly sunny.13 mph73%30.30 "HgN/A
11:00 AM64 °FBroken clouds.13 mph68%30.30 "HgN/A
10:30 AM64 °FBroken clouds.7 mph73%30.30 "HgN/A
10:00 AM61 °FScattered clouds.9 mph83%30.30 "HgN/A
9:30 AM59 °FPartly sunny.8 mph88%30.33 "HgN/A
9:00 AM59 °FMore clouds than sun.6 mph88%30.33 "HgN/A
8:30 AM57 °FDrizzle. Mostly cloudy.8 mph88%30.33 "HgN/A
8:00 AM54 °FScattered clouds.7 mph94%30.33 "HgN/A
7:30 AM52 °FCool.6 mph94%30.30 "HgN/A
7:00 AM52 °FPassing clouds.6 mph94%30.30 "HgN/A
6:30 AM54 °FCool.7 mph88%30.30 "HgN/A
6:00 AM54 °FCool.7 mph94%30.30 "HgN/A
5:30 AM55 °FCool.7 mph94%30.30 "HgN/A
5:00 AM55 °FPassing clouds.6 mph94%30.30 "HgN/A
4:30 AM55 °FMostly cloudy.No wind88%30.30 "HgN/A
4:00 AM55 °FPartly cloudy.5 mph88%30.30 "HgN/A
3:30 AM55 °FScattered showers. Overcast.6 mph88%30.30 "HgN/A
3:00 AM54 °FPassing clouds.6 mph94%30.30 "HgN/A
2:30 AM55 °FCool.6 mph94%30.30 "HgN/A
2:00 AM54 °FCool.2 mph94%30.33 "HgN/A
1:30 AM54 °FCool.3 mph94%30.33 "HgN/A
1:00 AM54 °FCool.6 mph94%30.33 "HgN/A
12:30 AM54 °FCool.6 mph94%30.33 "HgN/A
12:00 AM55 °FCool.7 mph94%30.33 "HgN/A
Weather by CustomWeather, © 2015

See weather overviewHow to use our weather pages